Regional Weather Roundup
Issued by NWS

Home | Current Version | Previous Version | Text Only | Print | Product List | Glossary Off
Versions: 1 2 3 4 5 6 7 8 9 10 11 12 13 14 15 16 17 18 19 20 21 22 23 24 25 26 27

000
ASUS45 KPSR 241110
RWRAZ

ARIZONA HOURLY REGIONAL WEATHER ROUNDUP
NATIONAL WEATHER SERVICE PHOENIX AZ
400 AM MST MON JUL 24 2017

NOTE: FAIR INDICATES FEW OR NO CLOUDS BELOW 12,000 FEET WITH NO
SIGNIFICANT WEATHER AND/OR OBSTRUCTIONS TO VISIBILITY.

AZZ001>003-036-241200-
NORTHWEST ARIZONA

CITY           SKY/WX    TMP DP  RH WIND       PRES   REMARKS
KINGMAN        CLOUDY    73  63  70 E7        30.03R
$$

AZZ004>008-015-016-018-241200-
NORTH CENTRAL ARIZONA

CITY           SKY/WX    TMP DP  RH WIND       PRES   REMARKS
GRAND CANYON   CLOUDY    62  57  83 CALM      30.23F
WILLIAMS       CLOUDY    61  59  94 S7        30.25S
PRESCOTT       CLOUDY    65  65 100 CALM      30.15R
FLAGSTAFF      LGT RAIN  59  58  96 NE5       30.29R
PAYSON         CLOUDY    68  66  94 SW3       30.17S
PAGE           CLOUDY    80  55  42 SE7       30.03R
$$

AZZ009>014-017-241200-
NORTHEAST ARIZONA

CITY           SKY/WX    TMP DP  RH WIND       PRES   REMARKS
WINSLOW        CLOUDY    68  65  90 CALM      30.15S
SAINT JOHNS    CLOUDY    63  61  93 CALM      30.19S
WINDOW ROCK    LGT RAIN  59  56  89 N5        30.30F
SHOW LOW       CLOUDY    59  55  88 CALM      30.23S
$$

AZZ540-542>544-546-548-241200-
GREATER PHOENIX AREA

CITY           SKY/WX    TMP DP  RH WIND       PRES   REMARKS
PHOENIX        CLOUDY    80  72  76 CALM      29.88R
BUCKEYE        CLOUDY    81  73  78 E7        29.88S
LUKE AFB       MOCLDY    82  69  65 CALM      29.87S
DEER VALLEY    CLOUDY    81  69  67 CALM      29.90R
SCOTTSDALE     CLOUDY    79  72  79 CALM      29.92R
MESA-GATEWAY   CLOUDY    77  73  88 CALM      29.91R
$$

AZZ539-553-241200-
SOUTHWEST MARICOPA COUNTY AND PINAL COUNTY

CITY           SKY/WX    TMP DP  RH WIND       PRES   REMARKS
CASA GRANDE    CLOUDY    78  73  84 N5        29.91R
GILA BEND      CLOUDY    87  70  57 SE5       29.84R
$$

AZZ503-504-507>509-241200-
SOUTHEAST ARIZONA

CITY           SKY/WX    TMP DP  RH WIND       PRES   REMARKS
TUCSON         MOCLDY    75  70  84 S8        29.99R
DAVIS-MONTHAN  CLOUDY    74  74 100 SE5       29.97S
NOGALES        CLOUDY    68  67  96 NE3       30.06S
SIERRA VISTA   PTCLDY    65  64  93 NW5       30.11S
DOUGLAS        MOCLDY    67  67 100 E5        30.08R
SAFFORD        MOCLDY    72  69  90 NW6       29.99F
$$

AZZ532-241200-
SOUTHWEST ARIZONA

CITY           SKY/WX    TMP DP  RH WIND       PRES   REMARKS
YUMA           PTCLDY    86  65  49 S7        29.77R
$$

CAZ041-043-047-048-061-525>527-560>570-241200-
SOUTHERN CALIFORNIA

CITY           SKY/WX    TMP DP  RH WIND       PRES   REMARKS
DOWNTOWN L.A.  PTCLDY    69  63  81 CALM      29.87F
L.A. AIRPORT   MOCLDY    69  63  81 CALM      29.88F
SAN DIEGO      MOCLDY    70  63  78 W3        29.89S
BURBANK        PTCLDY    67  61  81 CALM      29.89F
ONTARIO        PTCLDY    68  62  81 SW3       29.89F
RIVERSIDE      CLEAR     67  63  87 CALM      29.89F
PALM SPRINGS   PTCLDY    86  58  38 CALM      29.81S
EL CENTRO NAS  MOCLDY    81  75  82 E6        29.76R
IMPERIAL       MOCLDY    84  74  71 CALM      29.74R
BLYTHE         PTCLDY    87  66  49 S9        29.79R
NEEDLES        CLEAR     91  64  40 S9        29.82R
$$

NVZ020-UTZ003-241200-
SOUTHERN NEVADA-UTAH

CITY           SKY/WX    TMP DP  RH WIND       PRES   REMARKS
LAS VEGAS      MOCLDY    88  59  37 E12       29.88S
SALT LAKE CITY PTCLDY    75  49  39 SE9       29.99R
$$

NMZ009-TXZ055-241200-
NEW MEXICO-WEST TEXAS

CITY           SKY/WX    TMP DP  RH WIND       PRES   REMARKS
ALBUQUERQUE    CLOUDY    69  60  73 CALM      30.20R
EL PASO        PTCLDY    72  67  84 N9        30.06R
$$


........................KEY........................
SKY/WX - SKY CONDITION/WEATHER
TMP    - TEMPERATURE IN FAHRENHEIT
DP     - DEW POINT IN FAHRENHEIT
RH     - RELATIVE HUMIDITY IN PERCENT
WIND   - DIRECTION AND SPEED IN MILES PER HOUR (MPH)
VRB    - VARIABLE WIND DIRECTION
PRES   - MEAN SEA LEVEL PRESSURE IN INCHES OF MERCURY
         F - FALLING PRESSURE   R - RISING PRESSURE
         S - STEADY PRESSURE
VSB    - VISIBILITY IN MILES
HX     - HEAT INDEX IN FAHRENHEIT
WCI    - WIND CHILL INDEX IN FAHRENHEIT
TC     - TEMPERATURE IN CELSIUS WHICH IS ALSO KNOWN AS
         TEMPERATURE IN CENTIGRADE
AFB    - AIR FORCE BASE
         LUKE AFB IS LUKE AIR FORCE BASE
         DAVIS-MONTHAN IS DAVIS-MONTHAN AIR FORCE BASE
NAS    - NAVAL AIR STATION
         EL CENTRO NAS IS EL CENTRO NAVAL AIR STATION
N/A    - NOT AVAILABLE





USA.gov is the U.S. government's official web portal to all federal, state and local government web resources and services.